Location: Limerick
(52.6800°N, 8.6400°W)
Time: 17:06:42
(UTC+01:00)

Sapphire - Visible Passes

Search period start: 23 July 2014 00:00
Search period end: 02 August 2014 00:00
Orbit: 788 x 795 km, 67.1° (Epoch: 21 July)

Date Brightness Start Highest point End Pass type
(mag) Time Alt. Az. Time Alt. Az. Time Alt. Az.
23 Jul ? 02:07:03 10° SE 02:09:33 14° ESE 02:12:11 10° ENE visible
23 Jul ? 03:47:48 17° SSW 03:52:01 69° ESE 03:57:26 10° NE visible
24 Jul ? 03:18:09 21° S 03:21:38 54° ESE 03:26:56 10° NE visible
25 Jul ? 02:48:29 24° S 02:51:18 42° ESE 02:56:23 10° NE visible
25 Jul ? 04:29:29 10° WSW 04:34:43 48° NW 04:40:00 10° NNE visible
26 Jul ? 02:18:46 24° SSE 02:20:59 33° ESE 02:25:47 10° NE visible
26 Jul ? 03:59:30 14° WSW 04:04:12 59° NW 04:09:35 10° NE visible
27 Jul ? 01:49:02 22° SE 01:50:43 26° ESE 01:55:07 10° ENE visible
27 Jul ? 03:29:46 19° SW 03:33:42 72° NW 03:39:09 10° NE visible
28 Jul ? 01:19:15 18° SE 01:20:29 20° ESE 01:24:19 10° ENE visible
28 Jul ? 02:59:59 25° SW 03:03:15 89° NW 03:08:43 10° NE visible
28 Jul ? 04:42:42 10° W 04:47:23 29° NNW 04:52:05 10° NNE visible
29 Jul ? 00:49:26 15° ESE 00:50:17 15° ESE 00:53:17 10° ENE visible
29 Jul ? 02:30:10 31° SSW 02:32:49 74° SE 02:38:15 10° NE visible
29 Jul ? 04:11:52 10° W 04:16:45 33° NNW 04:21:39 10° NNE visible
30 Jul ? 00:19:35 11° ESE 00:20:07 11° ESE 00:21:40 10° E visible
30 Jul ? 02:00:18 35° S 02:02:26 58° ESE 02:07:46 10° NE visible
30 Jul ? 03:41:05 10° WSW 03:46:09 38° NW 03:51:14 10° NNE visible
31 Jul ? 01:30:25 35° SSE 01:32:04 46° ESE 01:37:15 10° NE visible
31 Jul ? 03:11:08 14° WSW 03:15:34 46° NW 03:20:49 10° NNE visible
31 Jul ? 04:56:19 10° WNW 05:00:20 20° NNW 05:04:22 10° NNE visible
01 Aug ? 01:00:29 31° SE 01:01:45 36° ESE 01:06:40 10° NE visible
01 Aug ? 02:41:12 19° WSW 02:45:02 55° NW 02:50:23 10° NE visible
01 Aug ? 04:25:25 10° WNW 04:29:37 22° NNW 04:33:51 10° NNE visible
